Airfield :
LOGIN :

Register | Disclaimer

   EN    FR    IT 

 










Legend :    VFR   Marginal VFR   IFR   Intensive IFR   Very Intensive IFR
Visi :
Ceiling :
>= 8 km
>= 3000ft
5 to 8 km
1000 to 3000 ft
1500m to 5 km
500 to 1000 ft
800 to 1500m
200 to 500 ft
< 800m
< 200 ft
Symbols :   Thunderstorms  Fog  Heavy snow  Heavy precipitations  Wind > 20 kt
SIGMETs :     Misc.  Thunderstorms  Icing  Turbulence  Mountain Waves  Volcanic Ashes







- Airport Elevation : 1202 ft
- IATA code : IGS


ETSI - Ingolstadt

CURRENT METAR :
  • 231420Z 30007KT 9999 FEW060 BKN260 24/08 Q1018 BLU+BLU+

EXPIRED METARs :
  • 231320Z 34007KT 9999 FEW060 BKN260 24/08 Q1018 BLU+BLU+
  • 231220Z 30009KT 9999 FEW060 24/09 Q1018 BLU+BLU+

TAF AMD TAF ETSI
Valid from the 23 at 14:00 until the 23 at 23:00 UTC


231415Z 2314/2323 29008KT 9999 NSW FEW060 SCT150 BKN230 CANCEL 1520
No reported NOTAMs for that airfield.



MET'MAP, your aeronautical weather chart ! - Copyright ORBIFLY December 2007 - Disclaimer

ORBIFLY MET'MAP TEAM :

Programming & Development : Alexandra Zaïnal
Concept & Development : Baudouin d'Aumeries
Co-Development & Prog : Marc-Olivier Méhu
Technical & hardware support : Manuel Goepfert

Contact : metmap@orbifly.com




SOURCES & CREDITS :

   NOAA